This demonstration page uses our WeatherBlox Daily Observations layout. Learn more.

Left ArrowRight Arrow

Hourly Observations for February 27, 2021

Temp ( °F °C ) Dew Point ( °F °C ) Humidity (%) Winds ( mph kmh ) Pressure ( in mb ) Visibility ( mi km ) Precip ( " mm )
12:56 am 00:56 Clear 28 -2 23 -5.2 79 79 Calm 29.84 1010 10 16 0.00 0.00
1:56 am 01:56 Clear 27 -2.6 22 -5.7 80 80 E 3 6 29.86 1011 10 16 0.00 0.00
2:56 am 02:56 Clear 31 -0.4 23 -5 71 71 Calm 29.87 1011 10 16 0.00 0.00
3:56 am 03:56 Clear 24 -4.2 20 -6.8 82 82 Calm 29.87 1012 10 16 0.00 0.00
4:56 am 04:56 Clear 25 -3.8 21 -6.1 84 84 Calm 29.88 1012 10 16 0.00 0.00
5:56 am 05:56 Clear 23 -5.2 19 -7.3 85 85 Calm 29.90 1013 10 16 0.00 0.00
6:56 am 06:56 Clear 23 -4.9 20 -6.9 86 86 Calm 29.93 1014 10 16 0.00 0.00
7:56 am 07:56 Sunny 24 -4.5 21 -6.2 88 88 Calm 29.95 1014 10 16 0.00 0.00
8:56 am 08:56 Sunny 31 -0.5 25 -3.9 78 78 Calm 29.96 1015 10 16 0.00 0.00
9:56 am 09:56 Sunny 36 2 28 -2.1 75 75 Calm 29.95 1014 10 16 0.00 0.00
10:56 am 10:56 Sunny 45 7.1 31 -0.6 58 58 Calm 29.95 1014 10 16 0.00 0.00
11:56 am 11:56 Sunny 49 9.2 35 1.4 58 58 Calm 29.92 1013 10 16 0.00 0.00
12:56 pm 12:56 Sunny 49 9.4 37 2.5 62 62 E 9 15 29.87 1011 10 16 0.00 0.00
1:56 pm 13:56 Sunny 51 10.3 40 4.7 69 69 E 13 20 29.81 1010 10 16 0.00 0.00
2:56 pm 14:56 Sunny 53 11.4 40 4.6 63 63 E 12 19 29.76 1008 10 16 0.00 0.00
3:56 pm 15:56 Sunny 52 11.3 36 2.3 54 54 SE 14 22 29.75 1008 10 16 0.00 0.00
4:56 pm 16:56 Sunny 50 10.2 38 3.2 62 62 SE 9 15 29.72 1007 10 16 0.00 0.00
5:56 pm 17:56 Cloudy 50 9.8 34 0.9 54 54 ESE 3 6 29.73 1007 10 16 0.00 0.00
6:56 pm 18:56 Cloudy 44 6.9 35 1.6 69 69 E 8 13 29.74 1007 10 16 0.00 0.00
7:56 pm 19:56 Cloudy 46 7.8 36 2.1 68 68 E 9 15 29.75 1007 10 16 0.00 0.00
8:56 pm 20:56 Mostly Clear 45 7 36 2.3 72 72 ESE 9 15 29.72 1007 10 16 0.00 0.00
9:56 pm 21:56 Cloudy 44 6.6 37 2.9 77 77 ENE 6 9 29.73 1007 10 16 0.00 0.00
10:56 pm 22:56 Cloudy 43 6.3 37 2.9 79 79 Calm 29.72 1007 10 16 0.00 0.00
11:56 pm 23:56 Cloudy 42 5.3 37 2.5 82 82 SE 3 6 29.72 1006 10 16 0.00 0.00

Powered by AerisWeather